Regional Weather Roundup
Issued by NWS

Home | Current Version | Previous Version | Graphics & Text | Print | Product List | Glossary On
Versions: 1 2 3 4 5 6 7 8 9 10 11 12 13 14 15 16 17 18 19 20 21 22 23 24 25 26 27 28 29 30 31 32 33 34 35 36 37 38 39 40 41 42 43 44 45 46 47 48 49 50
000
ASUS43 KMKX 301121
RWRWI

WISCONSIN REGIONAL WEATHER ROUNDUP
NATIONAL WEATHER SERVICE MILWAUKEE/SULLIVAN WI
600 AM CDT SAT JUL 30 2016

NOTE: "FAIR" INDICATES FEW OR NO CLOUDS BELOW 12,000 FEET WITH NO
SIGNIFICANT WEATHER AND/OR OBSTRUCTIONS TO VISIBILITY.

WIZ001-002-006>008-014>016-023>028-301200-
NORTHWEST WISCONSIN

CITY           SKY/WX    TMP DP  RH WIND       PRES   REMARKS
SUPERIOR ARPT  FOG       50  50 100 CALM      30.07R VSB 1/4
ASHLAND        MOCLDY    50  49  96 SW3       30.07R FOG
HAYWARD        CLOUDY    56  53  90 CALM      30.07R
SIREN          MOCLDY    57  55  94 CALM      30.05
CUMBERLAND     PTCLDY    57  55  94 CALM      30.07R
RICE LAKE      PTCLDY    58  56  93 CALM      30.07S
CHETEK         PTCLDY    60  60  97 E3        30.06S
LADYSMITH      CLEAR     56  55  95 CALM      30.09S
EAU CLAIRE     PTCLDY    60  60 100 NE6       30.03F FOG
MENOMONIE      PTCLDY    60  58  96 CALM      30.04F
NEW RICHMOND   PTCLDY    60  59  97 E6        30.04S
OSCEOLA        MOCLDY    61  61 100 CALM      30.06S
$$

WIZ003>005-009-010-017-018-301200-
NORTH CENTRAL WISCONSIN

CITY           SKY/WX    TMP DP  RH WIND       PRES   REMARKS
MANITOWISH WTR MOCLDY    53  53 100 CALM      30.10S FOG
ARBOR VITAE    MOCLDY    57  55  95 CALM      30.10R
WOODRUFF       MOCLDY    57  55  95 CALM      30.10R
RHINELANDER    CLEAR     53  50  89 CALM      30.10S
EAGLE RIVER    PTCLDY    50  50 100 CALM      30.10S
LAND O LAKES   CLEAR     50  49  99 CALM      30.11S
PHILLIPS       CLEAR     54  54 100 CALM      30.09R
TOMAHAWK       FOG       47  46  97 CALM      30.11R VSB 1/2
MEDFORD        MOCLDY    55  55 100 CALM      30.08S
MERRILL        PTCLDY    51  51 100 CALM      30.09R
$$

WIZ029-030-035-036-043>047-301200-
CENTRAL WISCONSIN

CITY           SKY/WX    TMP DP  RH WIND       PRES   REMARKS
WAUSAU         MOCLDY    59  53  80 VRB3      30.05S
MOSINEE        MOCLDY    59  55  88 NE6       30.07R
MARSHFIELD     CLOUDY    61  55  81 NE6       30.05S
STEVENS POINT  CLOUDY    58  56  90 NE7       30.05S
WAUPACA        MOCLDY    64  61  90 CALM      30.04R
WAUTOMA        CLOUDY    63  59  87 N5        30.03
WISC RAPIDS    CLOUDY    63  55  75 NE6       30.05S
CAMP DOUGLAS   MOCLDY    60  60  99 W3        30.03R
$$

WIZ011>013-019>022-031-037>040-048>050-301200-
NORTHEAST WISCONSIN

CITY           SKY/WX    TMP DP  RH WIND       PRES   REMARKS
ANTIGO         PTCLDY    51  51  98 CALM      30.08S
SHAWANO        CLOUDY    61  57  84 NE8       30.06S
OCONTO         CLEAR    N/A N/A N/A N3        30.05R
STURGEON BAY   CLEAR     64  58  80 E5        30.06R
GREEN BAY      CLEAR     59  59 100 N8        30.03S
MANITOWOC      MOCLDY    62  59  90 N6        30.03R
APPLETON       NOT AVBL
CLINTONVILLE   CLOUDY    61  55  82 NE5       30.05R
OSHKOSH        CLOUDY    67  61  81 NE5       30.01S
$$

WIZ032>034-041-042-053>061-301200-
SOUTHWEST WISCONSIN

CITY           SKY/WX    TMP DP  RH WIND       PRES   REMARKS
LA CROSSE      CLOUDY    67  64  90 NE6       30.02R
SPARTA         CLOUDY    62  61  96 NE3       30.04R
VIROQUA        CLOUDY    64  62  95 NE5       30.03S
BOSCOBEL       CLOUDY    63  62  97 CALM      30.01R FOG
PRAIRIE DU CHI MOCLDY    65  62  93 CALM      30.00R
PLATTEVILLE    CLOUDY    65  65 100 N6        30.01R
$$

WIZ056-057-062-063-064-067-068-301200-
SOUTH CENTRAL WISCONSIN

CITY           SKY/WX    TMP DP  RH WIND       PRES   REMARKS
REEDSBURG      CLOUDY    63  61  95 CALM      30.02R
BARABOO/DELLS  CLOUDY    62  58  88 CALM      30.02S
LONE ROCK      CLOUDY    65  60  84 CALM      30.01S
MINERAL POINT  CLOUDY    64  63  94 NE5       30.01R
MADISON        MOCLDY    63  59  87 N5        30.00R
MIDDLETON      CLOUDY    64  60  87 CALM      30.02R
WATERTOWN      CLOUDY    64  64 100 N5        30.00R
MONROE         MOCLDY    63  61  94 N6        29.99R
JANESVILLE     MOCLDY    64  63  94 CALM      29.98R
$$

WIZ051-052-058>065-066-070>072-301200-
SOUTHEAST WISCONSIN

CITY           SKY/WX    TMP DP  RH WIND       PRES   REMARKS
MILWAUKEE      CLOUDY    68  64  87 NE7       29.99R
WAUKESHA       MOCLDY    63  57  82 NE6       30.00S
MILWAUKEE/TIMM PTCLDY    63  55  77 NE5       30.00R
RACINE         CLOUDY    69  63  81 E8        29.99R
BURLINGTON     CLOUDY    64  63  95 NE7       29.98R
KENOSHA        MOCLDY    67  63  87 E10       29.98R
FOND DU LAC    CLOUDY    67  62  84 NE5       30.01S
SHEBOYGAN      CLEAR     61  58  90 CALM      30.02R
WEST BEND      MOCLDY    61  57  88 CALM      30.01R
JUNEAU         CLOUDY    63  60  90 NE6       30.02R
$$

LSZ147-162-301200-
LAKE SUPERIOR

STATION/POSITION TIME  TEMP    WIND        PRES    WAVE
                       AIR SEA DIR/SP/G            HT/PER
                 (UTC) (F)     (DEG/KT/KT) (MB)    (FT/S)
W MID LAKE BUOY  1050   62 61   80/  8/  8 1017.4R   0
DEVILS ISLAND    1100   64     100/  7/  8 1018.0R
PORT WING        1000   54     160/  3/  4 1017.6S
SAXON HARBOR     1000   56     210/  4/  4 1017.3S
$$

LMZ867-665-643>646-301200-
LAKE MICHIGAN

STATION/POSITION TIME  TEMP    WIND        PRES    WAVE
                       AIR SEA DIR/SP/G            HT/PER
                 (UTC) (F)     (DEG/KT/KT) (MB)    (FT/S)
CHAMBERS ISLAND  1000   69      80/  5/  8 1017.6R
S GREEN BAY BUOY 1100   68 70   60/ 12/ 14 1016.8
N MID LAKE BUOY  1050   69 69   70/ 10/ 12 1017.3R   1/ 3
NORTHPORT PIER   1000   69      90/  9/ 10 1017.6R
SISTER BAY       1021   63        CALM       N/A
ALGOMA LAKESHORE 1043           80/  9/ 10   N/A
KEWAUNEE LAKESHO 1100   66      60/  2/  4 1016.6R
SHEBOYGAN LAKESH 1100   67      20/  4/  5 1016.5R
PORT WASHINGTON  1040   67      40/  5/  7 1016.6R
ATWATER BUOY     1100   63 60  360/  4/  6 1017.2R
MILWAUKEE LAKESH 1110   66      30/  6/  6   N/A
S MID LAKE BUOY  1050   68 73   90/ 17/ 19 1013.8R   4/ 5
KENOSHA   LAKESH 1100   69     100/ 15/ 19 1014.6R
$$

TC  - TEMPERATURE IN CELSIUS
VSB - VISIBILITY IN STATUTE MILES
WCI - WIND CHILL INDEX
HX  - HEAT INDEX





USA.gov is the U.S. government's official web portal to all federal, state and local government web resources and services.